Location: Durkee
(44.1305°N, 107.9134°W)
Time: 01:55:55
(UTC+00:00)

X-37B - Pass Details

Date: 30 January 2022
Orbit: 329 x 342 km, 45.0° (Epoch: 18 May)

Event Time Altitude Azimuth Distance (km) Brightness Sun altitude
Rises 01:51:05 0° 253° (WSW) 2,114 6.0 -16.8°
Reaches altitude 10° 01:53:06 10° 252° (WSW) 1,275 4.5 -17.2°
Maximum altitude 01:55:57 79° 166° (SSE) 347 0.2 -17.7°
Enters shadow 01:56:01 77° 139° (SE) 349 0.2 -17.7°
